Regional Weather Roundup
Issued by NWS Newport/Morehead, NC

Current Version | Previous Version | Graphics & Text | Print | Product List | Glossary Off
Versions: 1 2 3 4 5 6 7 8 9 10 11 12 13 14 15 16 17 18 19 20 21 22 23 24 25 26 27 28 29 30 31 32 33 34 35 36 37 38 39 40 41 42 43 44 45 46 47 48 49 50

000
ASUS42 KMHX 240410
RWRMHX
WEATHER ROUNDUP FOR EASTERN NORTH CAROLINA
NATIONAL WEATHER SERVICE NEWPORT/MOREHEAD CITY NC
1200 AM EDT THU JUL 24 2014

NOTE: "FAIR" INDICATES FEW OR NO CLOUDS BELOW 12,000 FEET
WITH NO SIGNIFICANT WEATHER AND/OR OBSTRUCTIONS TO VISIBILITY

NCZ015>017-031-032-045>047-102-103-240500-
NORTH COAST

CITY           SKY/WX    TMP DP  RH WIND       PRES   REMARKS
EDENTON        CLEAR     79  76  91 SW10      29.92R
ELIZABETH CITY CLEAR     79  76  90 SW9       29.90F
KITTY HAWK     CLEAR     79  75  87 SW8       29.90F
MANTEO         NOT AVBL

$$

NCZ045>047-081-094-103-104-240500-
CENTRAL COAST

CITY           SKY/WX    TMP DP  RH WIND       PRES   REMARKS
FRISCO         PTCLDY    79  77  94 W10       29.95S
SWANQUARTER      N/A     81 N/A N/A SW15      29.88F

$$

NCZ095-097-098-100-101-240500-
SOUTHERN COAST

CITY           SKY/WX    TMP DP  RH WIND       PRES   REMARKS
BEAUFORT       CLEAR     81  76  84 SW13      29.95F
CEDAR ISLAND     N/A     79 N/A N/A SW5G12    29.97S
JACKSONVILLE   CLEAR     76  74  93 CALM      29.94F
NEWPORT        NOT AVBL
PINEY ISLAND   MOCLDY    78  78 100 SW7       29.95S
WILMINGTON     PTCLDY    79  75  87 SW6       29.95S


$$

NCZ011>013-027>030-043-044-078>080-089-090>093-098-240500-
COASTAL PLAIN

CITY           SKY/WX    TMP DP  RH WIND       PRES   REMARKS
AHOSKIE        CLEAR     75  73  91 S5        29.91S
CLINTON        CLEAR     76  75  98 CALM      29.95R
ELIZABETHTOWN  CLEAR     77  75  94 S3        29.95S
GOLDSBORO      CLEAR     78  77  98 SW5       29.92S
GREENVILLE     CLEAR     79  75  89 SW8       29.95S
HAVELOCK       CLEAR     77  73  87 SW6       29.96S
KENANSVILLE    CLEAR     76  73  90 CALM      29.95F
KINSTON        CLEAR     78  74  90 S7        29.95S
NEW BERN       CLEAR     78  74  87 S6        29.95F
RICHLANDS      CLEAR     75  72  88 CALM      29.95S
ROANOKE RAPIDS NOT AVBL
ROCKY MOUNT    CLEAR     77  72  84 S3        29.92S
WASHINGTON     CLEAR     76  73  90 S5        29.94S
WHITEVILLE     CLEAR     78  74  88 S5        29.95R

$$

AMZ130-135-150-152-154-156-158-170-250-252-270-ANZ085-086-088-633-658-670-240500-
MARINE OBSERVATIONS

STATION/POSITION TIME  TEMP    WIND        PRES    WAVE   SWELL
                       AIR SEA DIR/SP/G            HT/PER HT/PER
                 (UTC) (F)     (DEG/KT/KT) (MB)    (FT/S) (FT/S)
CHESAPEAKE LIGHT NOT AVBL
BUOY 44014       0400   79 78  220/ 12/ 14 1011.7    3/ 5   2/ 7
DUCK             0300   81 74  210/ 11/ 14 1011.8
2E DUCK          0300                        N/A     2/ 9
OREGON INLET     0300   80 85  220/ 15/ 17 1013.2
BUOY 44095       0400      78                N/A     4/ 7
20E OREGON INLET NOT AVBL
HATTERAS CG      0300   79 83  230/  9/ 14 1014.4
DIAMOND BUOY     0400          VRB 17/ 21  1013.7    4/ 6   2/ 8
CAPE LOOKOUT     0300   80     230/ 11/ 15 1014.3
BEAUFORT LAB     0300   80 81  230/  6/ 13 1014.1
30 SE NEW RIVER  0300   80 81  220/ 16/ 19 1014.6
5 SE WRIGHTSVILL 0300   78 81  230/ 16/ 19   N/A
BUOY 41002       0258   82 82  220/ 17/ 21 1017.9    4/ 6   2/ 9
BUOY 41004       0400   82 82  210/ 14/ 16 1015.0    3/ 6   2/ 6

$$



USA.gov is the U.S. government's official web portal to all federal, state and local government web resources and services.